Weather History for KBTL - November, 2013

Change the Weather History Date:

Monday, November 25, 2013

  Actual Average Record
Temperature  
Mean Temperature 25 °F 35 °F  
Max Temperature 31 °F 43 °F 57 °F (2006)
Min Temperature 19 °F 27 °F 12 °F (2005)
Degree Days  
Heating Degree Days 40 30  
Month to date heating degree days 643 619  
Since 1 July heating degree days 1213 1281  
Cooling Degree Days 0 0  
Month to date cooling degree days 0 0  
Year to date cooling degree days 689 578  
Moisture  
Dew Point 16 °F    
Average Humidity 66    
Maximum Humidity 85    
Minimum Humidity 46    
Precipitation  
Precipitation T in 0.08 in 0.36 in (2010)
Month to date precipitation 1.90 2.41  
Year to date precipitation 33.80 30.74  
Sea Level Pressure  
Sea Level Pressure 30.18 in    
Wind  
Wind Speed 16 mph (SW)    
Max Wind Speed 24 mph    
Max Gust Speed 30 mph    
Visibility 8 miles    
Events Snow    
T = Trace of Precipitation, MM = Missing Value Source: NWS Daily Summary

Daily Weather History Graph

Daily Weather History Graph

Search for Another Location

Airport or City:

Trip Planner

Search our weather history database for the weather conditions in past years. The results will help you decide how hot, cold, wet, or windy it might be!

Date:

Astronomy

Nov. 25, 2013 Rise Set
Actual Time 7:43 AM EST 5:11 PM EST
Civil Twilight 7:13 AM EST 5:42 PM EST
Nautical Twilight 6:38 AM EST 6:17 PM EST
Astronomical Twilight 6:04 AM EST 6:51 PM EST
Moon No Moon Rise 12:56 PM EST (11/25)
Length of Visible Light 10h 29m
Length of Day
9h 27m
Waning Gibbous, 51% of the Moon is Illuminated
Nov 25
Waning Gibbous
Nov 25
Last Quarter
Dec 2
New
Dec 9
First Quarter
Dec 17
Full

Hourly Weather History & Observations

Time (EST) Temp. Windchill Dew Point Humidity Pressure Visibility Wind Dir Wind Speed Gust Speed Precip Events Conditions
12:53 AM 19.0 °F 6.1 °F 6.1 °F 57% 30.40 in 10.0 mi SSW 12.7 mph - N/A   Clear
1:53 AM 19.0 °F 6.1 °F 6.1 °F 57% 30.40 in 10.0 mi SSW 12.7 mph - N/A   Clear
2:53 AM 19.0 °F 6.1 °F 6.1 °F 57% 30.39 in 10.0 mi SSW 12.7 mph - N/A   Clear
3:53 AM 19.0 °F 6.1 °F 6.1 °F 57% 30.37 in 10.0 mi SSW 12.7 mph - N/A   Clear
4:53 AM 19.0 °F 4.5 °F 6.1 °F 57% 30.33 in 10.0 mi SSW 16.1 mph - N/A   Clear
5:53 AM 19.9 °F 6.2 °F 8.1 °F 60% 30.31 in 10.0 mi SSW 15.0 mph - N/A   Clear
6:53 AM 21.0 °F 6.6 °F 9.0 °F 60% 30.28 in 10.0 mi SSW 17.3 mph 24.2 mph N/A   Clear
7:53 AM 21.9 °F 6.9 °F 9.0 °F 58% 30.26 in 10.0 mi SSW 19.6 mph 27.6 mph N/A   Clear
8:53 AM 24.1 °F 9.4 °F 10.0 °F 55% 30.25 in 10.0 mi SW 20.7 mph - N/A   Overcast
9:53 AM 26.1 °F 11.6 °F 10.9 °F 53% 30.24 in 10.0 mi SSW 21.9 mph 27.6 mph N/A   Overcast
10:53 AM 27.0 °F 15.2 °F 10.9 °F 51% 30.22 in 10.0 mi SW 15.0 mph 25.3 mph N/A   Overcast
11:53 AM 28.0 °F 14.9 °F 10.9 °F 49% 30.19 in 10.0 mi SW 19.6 mph 27.6 mph N/A   Overcast
12:53 PM 28.9 °F 15.1 °F 12.0 °F 49% 30.15 in 10.0 mi SSW 23.0 mph 28.8 mph N/A   Overcast
1:53 PM 30.0 °F 18.3 °F 12.0 °F 47% 30.13 in 10.0 mi SW 17.3 mph 26.5 mph N/A   Overcast
2:53 PM 30.9 °F 19.4 °F 12.9 °F 47% 30.10 in 10.0 mi SW 17.3 mph 29.9 mph N/A   Overcast
3:53 PM 30.0 °F 17.9 °F 16.0 °F 56% 30.11 in 10.0 mi SW 18.4 mph 27.6 mph N/A   Overcast
4:19 PM 28.4 °F 17.5 °F 17.6 °F 64% 30.07 in 2.5 mi SW 13.8 mph 24.2 mph 0.00 in Snow Light Snow
4:29 PM 28.4 °F 17.0 °F 19.4 °F 69% 30.08 in 1.8 mi SW 15.0 mph - 0.00 in Snow Light Snow
4:37 PM 28.4 °F 16.6 °F 19.4 °F 69% 30.07 in 3.0 mi SW 16.1 mph 23.0 mph 0.00 in Snow Light Snow
4:46 PM 28.4 °F 15.8 °F 19.4 °F 69% 30.07 in 4.0 mi SW 18.4 mph 24.2 mph 0.00 in Snow Light Snow
4:53 PM 28.0 °F 15.7 °F 21.0 °F 75% 30.11 in 2.0 mi SW 17.3 mph 24.2 mph 0.00 in Snow Light Snow
5:00 PM 26.6 °F 15.7 °F 21.2 °F 80% 30.06 in 1.8 mi SW 12.7 mph 23.0 mph 0.00 in Snow Light Snow
5:05 PM 26.6 °F 15.2 °F 21.2 °F 80% 30.06 in 3.0 mi SW 13.8 mph - 0.00 in Snow Light Snow
5:53 PM 28.0 °F 18.6 °F 21.0 °F 75% 30.12 in 10.0 mi SW 10.4 mph - 0.00 in   Overcast
6:43 PM 28.4 °F 17.5 °F 21.2 °F 74% 30.08 in 10.0 mi SW 13.8 mph - N/A   Overcast
6:53 PM 28.0 °F 17.0 °F 21.9 °F 78% 30.13 in 10.0 mi SW 13.8 mph - N/A   Overcast
7:53 PM 28.9 °F 16.9 °F 21.9 °F 75% 30.12 in 10.0 mi SW 17.3 mph 20.7 mph N/A   Overcast
8:43 PM 28.4 °F 18.0 °F 23.0 °F 80% 30.08 in 10.0 mi SW 12.7 mph - N/A   Overcast
8:53 PM 28.9 °F 19.8 °F 23.0 °F 78% 30.12 in 10.0 mi SW 10.4 mph 20.7 mph N/A   Overcast
9:53 PM 28.9 °F 18.6 °F 24.1 °F 82% 30.12 in 8.0 mi SW 12.7 mph 23.0 mph N/A   Overcast
10:53 PM 28.9 °F 17.7 °F 25.0 °F 85% 30.11 in 10.0 mi SW 15.0 mph - N/A   Overcast
11:53 PM 28.9 °F 19.2 °F 25.0 °F 85% 30.11 in 10.0 mi SW 11.5 mph - N/A   Overcast